Weather in Kievsky

Russia / Moscow Oblast     55°25′45″N   36°52′01″E
temp.,
°C
wind,
m/s
gust,
m/s
humid.,
%
clouds,
%
prec.,
mm/h
press.,
hPa
HPBL,
m
29 july, thu
thu2900:00+16sse269882 0.5 1008223
03:00+17wsw249998 0.6 1007236
06:00+17w3898100 0.2 1007371
09:00+19wnw468572 0.3 1007659
12:00+25wnw465533 0.0 10071460
15:00+25wnw2655100 0.0 10061401
18:00+24wnw3760100 0.0 1006425
21:00+20wsw117786 0.0 100511
30 july, fri
fri3000:00+19s2281100 0.0 100525
03:00+17wsw3593100 0.7 1006116
06:00+17nnw1398100 1.8 100592
09:00+17sw1197100 2.3 100533
12:00+18sw139690 0.3 1006145
15:00+23wsw457587 1.1 10041093
18:00+22w26795 1.7 1004463
21:00+19wnw3887100 1.8 1004189
31 july, sat
sat3100:00+17wsw2684100 0.0 1005108
03:00+15wsw39875 0.0 1005200
06:00+15wsw312820 0.0 1005356
09:00+21wsw611510 0.0 10051280
12:00+24wsw6103977 0.0 10052040
15:00+26w6103738 0.0 10052392
18:00+24wsw5945100 0.0 10062000
21:00+18sw38664 0.0 1007175
1 august, sun
sun100:00+16sw277692 0.0 1008133
03:00+15sw2479100 0.0 100969
06:00+15ssw2578100 0.0 1009117
09:00+22ssw4759100 0.0 1009562
12:00+24sw51267100 1.1 10071170
15:00+24sw51380100 3.2 10071407
18:00+23w41078100 0.7 1007702
21:00+19wsw2295100 2.0 100726
2 august, mon
mon200:00+18nw0096100 0.4 100811
03:00+16wsw2296100 0.4 100818
06:00+17sw249676 0.0 1008112
09:00+22sw35720 0.0 1008440
12:00+27sw354411 0.0 10071708
15:00+28sw474297 0.0 10061859
18:00+26ssw2556100 0.0 1004224
21:00+20s367480 0.0 1003102